Retour au catalogue

STARLINK-36266

ActifCommunicationsSSO
NORAD 67984·PAYLOAD·🇺🇸 United States

Lancé Feb 25, 2026 depuis Vandenberg Space Force Base

Loading…

Prochains Passages (prochaines 24 heures)

TLE

FraisSource: CelesTrak SupGP

Époque: Sep 15, 2026, 03:34 UTC

1 67984C 26038Z   26258.14909722 -.00057581  00000+0 -17878-2 0  2588
2 67984  97.2842 266.6388 0001486  91.8476  71.3150 15.33463046    14

Suivez STARLINK-36266 en temps réel avec AllMySat

Download on the App Store